| time (UTC) | temp C | wind direction | speed KPH | gust KPH | rain 1hr cm | rain 24hr cm | rain mn cm | humidity % | barometer mb |
| 20260903110200 | 24 | 300 | 11.3 | 0.0 | 0.00 | 0.00 | 0.00 | 49 | 1020.1 |
| 20260903105659 | 24 | 95 | 8.0 | 0.0 | 0.00 | 0.00 | 0.00 | 51 | 1020.5 |
| 20260903105210 | 23 | 233 | 11.3 | 0.0 | 0.00 | 0.00 | 0.00 | 52 | 1020.5 |
| 20260903104657 | 23 | 360 | 12.9 | 0.0 | 0.00 | 0.00 | 0.00 | 52 | 1020.5 |
| 20260903104200 | 23 | 360 | 6.4 | 0.0 | 0.00 | 0.00 | 0.00 | 53 | 1020.4 |
| 20260903103712 | 23 | 157 | 6.4 | 0.0 | 0.00 | 0.00 | 0.00 | 53 | 1020.4 |
| 20260903103211 | 23 | 211 | 9.7 | 0.0 | 0.00 | 0.00 | 0.00 | 53 | 1020.4 |
| 20260903102714 | 23 | 360 | 12.9 | 0.0 | 0.00 | 0.00 | 0.00 | 53 | 1020.5 |
| 20260903102205 | 23 | 297 | 12.9 | 0.0 | 0.00 | 0.00 | 0.00 | 54 | 1020.5 |
| 20260903101656 | 23 | 288 | 11.3 | 0.0 | 0.00 | 0.00 | 0.00 | 52 | 1020.5 |
| 20260903101211 | 23 | 275 | 6.4 | 0.0 | 0.00 | 0.00 | 0.00 | 53 | 1020.4 |
| 20260903100659 | 23 | 297 | 4.8 | 0.0 | 0.00 | 0.00 | 0.00 | 53 | 1020.4 |
| 20260903100207 | 23 | 211 | 9.7 | 0.0 | 0.00 | 0.00 | 0.00 | 53 | 1020.4 |
| 20260903095700 | 22 | 360 | 12.9 | 0.0 | 0.00 | 0.00 | 0.00 | 54 | 1020.5 |
| 20260903095201 | 22 | 272 | 11.3 | 0.0 | 0.00 | 0.00 | 0.00 | 55 | 1020.5 |
| 20260903094708 | 22 | 360 | 8.0 | 0.0 | 0.00 | 0.00 | 0.00 | 54 | 1020.5 |
| 20260903094156 | 22 | 283 | 8.0 | 0.0 | 0.00 | 0.00 | 0.00 | 54 | 1020.6 |
| 20260903093703 | 22 | 259 | 8.0 | 0.0 | 0.00 | 0.00 | 0.00 | 54 | 1020.6 |
| 20260903093214 | 22 | 292 | 8.0 | 0.0 | 0.00 | 0.00 | 0.00 | 54 | 1020.6 |
| 20260903092658 | 22 | 308 | 9.7 | 0.0 | 0.00 | 0.00 | 0.00 | 54 | 1020.9 |
| 20260903092202 | 22 | 360 | 11.3 | 0.0 | 0.00 | 0.00 | 0.00 | 55 | 1020.9 |
| 20260903091703 | 21 | 286 | 11.3 | 0.0 | 0.00 | 0.00 | 0.00 | 56 | 1020.9 |
| 20260903091158 | 21 | 304 | 11.3 | 0.0 | 0.00 | 0.00 | 0.00 | 56 | 1020.9 |
| 20260903090702 | 21 | 275 | 12.9 | 0.0 | 0.00 | 0.00 | 0.00 | 56 | 1020.9 |
| 20260903090207 | 21 | 360 | 9.7 | 0.0 | 0.00 | 0.00 | 0.00 | 56 | 1020.9 |
| 20260903085659 | 21 | 360 | 6.4 | 0.0 | 0.00 | 0.00 | 0.00 | 57 | 1020.9 |
| 20260903085204 | 21 | 201 | 6.4 | 0.0 | 0.00 | 0.00 | 0.00 | 58 | 1020.9 |
| 20260903084710 | 21 | 281 | 9.7 | 0.0 | 0.00 | 0.00 | 0.00 | 57 | 1020.9 |
| 20260903084211 | 21 | 302 | 8.0 | 0.0 | 0.00 | 0.00 | 0.00 | 57 | 1020.9 |
| 20260903083700 | 21 | 275 | 6.4 | 0.0 | 0.00 | 0.00 | 0.00 | 58 | 1020.9 |
| 20260903083205 | 21 | 360 | 8.0 | 0.0 | 0.00 | 0.00 | 0.00 | 58 | 1020.9 |
| 20260903082714 | 20 | 310 | 8.0 | 0.0 | 0.00 | 0.00 | 0.00 | 59 | 1020.7 |
| 20260903082156 | 20 | 271 | 6.4 | 0.0 | 0.00 | 0.00 | 0.00 | 58 | 1020.7 |
| 20260903081658 | 20 | 318 | 6.4 | 0.0 | 0.00 | 0.00 | 0.00 | 60 | 1020.7 |
| 20260903081158 | 20 | 277 | 6.4 | 0.0 | 0.00 | 0.00 | 0.00 | 59 | 1020.6 |
| 20260903080702 | 20 | 360 | 3.2 | 0.0 | 0.00 | 0.00 | 0.00 | 61 | 1020.6 |
| 20260903080208 | 20 | 152 | 1.6 | 0.0 | 0.00 | 0.00 | 0.00 | 61 | 1020.6 |
| 20260903075706 | 20 | 360 | 0.0 | 0.0 | 0.00 | 0.00 | 0.00 | 62 | 1020.7 |
| 20260903075207 | 19 | 186 | 1.6 | 0.0 | 0.00 | 0.00 | 0.00 | 63 | 1020.7 |
| 20260903074655 | 18 | 253 | 1.6 | 0.0 | 0.00 | 0.00 | 0.00 | 67 | 1020.7 |
| 20260903074159 | 18 | 225 | 1.6 | 0.0 | 0.00 | 0.00 | 0.00 | 68 | 1020.8 |
| 20260903073658 | 17 | 171 | 1.6 | 0.0 | 0.00 | 0.00 | 0.00 | 69 | 1020.8 |
| 20260903073158 | 17 | 360 | 1.6 | 0.0 | 0.00 | 0.00 | 0.00 | 71 | 1020.8 |
| 20260903072706 | 17 | 178 | 1.6 | 0.0 | 0.00 | 0.00 | 0.00 | 72 | 1021.0 |
| 20260903072212 | 16 | 360 | 1.6 | 0.0 | 0.00 | 0.00 | 0.00 | 74 | 1021.0 |
| 20260903071715 | 16 | 252 | 0.0 | 0.0 | 0.00 | 0.00 | 0.00 | 76 | 1021.0 |
| 20260903071200 | 16 | 360 | 0.0 | 0.0 | 0.00 | 0.00 | 0.00 | 78 | 1021.3 |
| 20260903070658 | 16 | 198 | 0.0 | 0.0 | 0.00 | 0.00 | 0.00 | 79 | 1021.3 |
| 20260903070206 | 15 | 190 | 0.0 | 0.0 | 0.00 | 0.00 | 0.00 | 80 | 1021.3 |
| 20260903065707 | 15 | 208 | 1.6 | 0.0 | 0.00 | 0.00 | 0.00 | 81 | 1021.5 |
| 20260903065157 | 15 | 360 | 1.6 | 0.0 | 0.00 | 0.00 | 0.00 | 82 | 1021.5 |
| 20260903064659 | 14 | 232 | 0.0 | 0.0 | 0.00 | 0.00 | 0.00 | 83 | 1021.5 |
| 20260903064202 | 14 | 227 | 0.0 | 0.0 | 0.00 | 0.00 | 0.00 | 84 | 1021.5 |
| 20260903063711 | 13 | 213 | 0.0 | 0.0 | 0.00 | 0.00 | 0.00 | 84 | 1021.5 |
| 20260903063213 | 13 | 188 | 0.0 | 0.0 | 0.00 | 0.00 | 0.00 | 84 | 1021.5 |
| 20260903062653 | 13 | 183 | 0.0 | 0.0 | 0.00 | 0.00 | 0.00 | 83 | 1021.4 |
| 20260903062157 | 13 | 360 | 0.0 | 0.0 | 0.00 | 0.00 | 0.00 | 83 | 1021.4 |
| 20260903061653 | 13 | 183 | 0.0 | 0.0 | 0.00 | 0.00 | 0.00 | 83 | 1021.4 |
| 20260903061208 | 13 | 183 | 0.0 | 0.0 | 0.00 | 0.00 | 0.00 | 82 | 1021.3 |
| 20260903060701 | 12 | 360 | 0.0 | 0.0 | 0.00 | 0.00 | 0.00 | 82 | 1021.3 |
| 20260903060211 | 12 | 183 | 0.0 | 0.0 | 0.00 | 0.00 | 0.00 | 82 | 1021.3 |
| 20260903055657 | 12 | 184 | 0.0 | 0.0 | 0.00 | 0.00 | 0.00 | 82 | 1021.2 |
| 20260903055159 | 12 | 185 | 0.0 | 0.0 | 0.00 | 0.00 | 0.00 | 82 | 1021.2 |
| 20260903054707 | 12 | 186 | 0.0 | 0.0 | 0.00 | 0.00 | 0.00 | 82 | 1021.2 |
| 20260903054202 | 12 | 200 | 0.0 | 0.0 | 0.00 | 0.00 | 0.00 | 82 | 1021.2 |
| 20260903053653 | 12 | 239 | 0.0 | 0.0 | 0.00 | 0.00 | 0.00 | 81 | 1021.2 |
| 20260903053207 | 12 | 360 | 0.0 | 0.0 | 0.00 | 0.00 | 0.00 | 81 | 1021.2 |
| 20260903052653 | 12 | 239 | 0.0 | 0.0 | 0.00 | 0.00 | 0.00 | 81 | 1021.1 |
| 20260903052159 | 12 | 238 | 0.0 | 0.0 | 0.00 | 0.00 | 0.00 | 81 | 1021.1 |
| 20260903051708 | 12 | 239 | 0.0 | 0.0 | 0.00 | 0.00 | 0.00 | 81 | 1021.1 |
| 20260903051158 | 12 | 238 | 0.0 | 0.0 | 0.00 | 0.00 | 0.00 | 80 | 1021.0 |
| 20260903050706 | 12 | 239 | 0.0 | 0.0 | 0.00 | 0.00 | 0.00 | 80 | 1021.0 |
| 20260903050208 | 12 | 239 | 0.0 | 0.0 | 0.00 | 0.00 | 0.00 | 79 | 1021.0 |
| 20260903045656 | 12 | 239 | 0.0 | 0.0 | 0.00 | 0.00 | 0.00 | 79 | 1021.0 |
| 20260903045200 | 12 | 239 | 0.0 | 0.0 | 0.00 | 0.00 | 0.00 | 79 | 1021.0 |
| 20260903044701 | 12 | 238 | 0.0 | 0.0 | 0.00 | 0.00 | 0.00 | 79 | 1021.0 |
| 20260903044208 | 12 | 360 | 0.0 | 0.0 | 0.00 | 0.00 | 0.00 | 79 | 1020.9 |
| 20260903043713 | 12 | 239 | 0.0 | 0.0 | 0.00 | 0.00 | 0.00 | 79 | 1020.9 |
| 20260903043214 | 12 | 239 | 0.0 | 0.0 | 0.00 | 0.00 | 0.00 | 78 | 1020.9 |
| 20260903042702 | 12 | 239 | 0.0 | 0.0 | 0.00 | 0.00 | 0.00 | 78 | 1020.9 |
| 20260903042210 | 12 | 239 | 0.0 | 0.0 | 0.00 | 0.00 | 0.00 | 78 | 1020.9 |
| 20260903041711 | 12 | 239 | 0.0 | 0.0 | 0.00 | 0.00 | 0.00 | 78 | 1020.9 |
| 20260903041203 | 12 | 239 | 0.0 | 0.0 | 0.00 | 0.00 | 0.00 | 78 | 1020.5 |
| 20260903040711 | 12 | 238 | 0.0 | 0.0 | 0.00 | 0.00 | 0.00 | 77 | 1020.5 |
| 20260903040205 | 12 | 239 | 0.0 | 0.0 | 0.00 | 0.00 | 0.00 | 77 | 1020.5 |
| 20260903035700 | 12 | 239 | 0.0 | 0.0 | 0.00 | 0.00 | 0.00 | 77 | 1020.5 |
| 20260903035155 | 12 | 239 | 0.0 | 0.0 | 0.00 | 0.00 | 0.00 | 77 | 1020.5 |
| 20260903034703 | 12 | 360 | 0.0 | 0.0 | 0.00 | 0.00 | 0.00 | 77 | 1020.5 |
| 20260903034201 | 12 | 239 | 0.0 | 0.0 | 0.00 | 0.00 | 0.00 | 77 | 1020.5 |
| 20260903033716 | 12 | 360 | 0.0 | 0.0 | 0.00 | 0.00 | 0.00 | 77 | 1020.5 |
| 20260903033201 | 12 | 239 | 0.0 | 0.0 | 0.00 | 0.00 | 0.00 | 77 | 1020.5 |
| 20260903032655 | 12 | 239 | 0.0 | 0.0 | 0.00 | 0.00 | 0.00 | 77 | 1020.6 |
| 20260903032208 | 13 | 239 | 0.0 | 0.0 | 0.00 | 0.00 | 0.00 | 77 | 1020.6 |
| 20260903031703 | 13 | 239 | 0.0 | 0.0 | 0.00 | 0.00 | 0.00 | 77 | 1020.6 |
| 20260903031215 | 13 | 239 | 0.0 | 0.0 | 0.00 | 0.00 | 0.00 | 76 | 1020.3 |
| 20260903030658 | 13 | 239 | 0.0 | 0.0 | 0.00 | 0.00 | 0.00 | 76 | 1020.3 |
| 20260903030203 | 13 | 239 | 0.0 | 0.0 | 0.00 | 0.00 | 0.00 | 76 | 1020.3 |
| 20260903025704 | 13 | 239 | 0.0 | 0.0 | 0.00 | 0.00 | 0.00 | 76 | 1020.4 |
| 20260903025204 | 13 | 240 | 0.0 | 0.0 | 0.00 | 0.00 | 0.00 | 75 | 1020.4 |
| 20260903024703 | 13 | 239 | 0.0 | 0.0 | 0.00 | 0.00 | 0.00 | 75 | 1020.4 |
| 20260903024208 | 13 | 239 | 0.0 | 0.0 | 0.00 | 0.00 | 0.00 | 75 | 1020.5 |
| 20260903023702 | 13 | 239 | 0.0 | 0.0 | 0.00 | 0.00 | 0.00 | 75 | 1020.5 |
| 20260903023155 | 13 | 239 | 0.0 | 0.0 | 0.00 | 0.00 | 0.00 | 75 | 1020.5 |
| 20260903022709 | 13 | 239 | 0.0 | 0.0 | 0.00 | 0.00 | 0.00 | 75 | 1020.5 |
| 20260903022202 | 13 | 239 | 0.0 | 0.0 | 0.00 | 0.00 | 0.00 | 75 | 1020.5 |
| 20260903021713 | 13 | 239 | 0.0 | 0.0 | 0.00 | 0.00 | 0.00 | 75 | 1020.5 |
| 20260903021208 | 13 | 239 | 0.0 | 0.0 | 0.00 | 0.00 | 0.00 | 75 | 1020.1 |
| 20260903020702 | 13 | 239 | 0.0 | 0.0 | 0.00 | 0.00 | 0.00 | 76 | 1020.1 |
| 20260903020210 | 14 | 239 | 0.0 | 0.0 | 0.00 | 0.00 | 0.00 | 76 | 1020.1 |
| 20260903015713 | 14 | 238 | 0.0 | 0.0 | 0.00 | 0.00 | 0.00 | 76 | 1020.2 |
| 20260903015201 | 14 | 238 | 0.0 | 0.0 | 0.00 | 0.00 | 0.00 | 76 | 1020.2 |
| 20260903014709 | 14 | 238 | 0.0 | 0.0 | 0.00 | 0.00 | 0.00 | 76 | 1020.2 |
| 20260903014159 | 14 | 272 | 0.0 | 0.0 | 0.00 | 0.00 | 0.00 | 76 | 1020.3 |
| 20260903013701 | 14 | 272 | 0.0 | 0.0 | 0.00 | 0.00 | 0.00 | 76 | 1020.3 |
| 20260903013208 | 14 | 273 | 0.0 | 0.0 | 0.00 | 0.00 | 0.00 | 76 | 1020.3 |
| 20260903012704 | 14 | 275 | 0.0 | 0.0 | 0.00 | 0.00 | 0.00 | 76 | 1020.1 |
| 20260903012156 | 14 | 272 | 0.0 | 0.0 | 0.00 | 0.00 | 0.00 | 76 | 1020.1 |
| 20260903011710 | 14 | 272 | 0.0 | 0.0 | 0.00 | 0.00 | 0.00 | 76 | 1020.1 |
| 20260903011216 | 14 | 273 | 0.0 | 0.0 | 0.00 | 0.00 | 0.00 | 75 | 1020.2 |
| 20260903010659 | 14 | 272 | 0.0 | 0.0 | 0.00 | 0.00 | 0.00 | 75 | 1020.2 |
| 20260903010204 | 14 | 273 | 0.0 | 0.0 | 0.00 | 0.00 | 0.00 | 75 | 1020.2 |
| 20260903005709 | 14 | 273 | 0.0 | 0.0 | 0.00 | 0.00 | 0.00 | 75 | 1020.2 |
| 20260903005209 | 14 | 272 | 0.0 | 0.0 | 0.00 | 0.00 | 0.00 | 75 | 1020.2 |
| 20260903004712 | 14 | 273 | 0.0 | 0.0 | 0.00 | 0.00 | 0.00 | 74 | 1020.2 |
| 20260903004203 | 14 | 272 | 0.0 | 0.0 | 0.00 | 0.00 | 0.00 | 74 | 1020.3 |
| 20260903003707 | 14 | 273 | 0.0 | 0.0 | 0.00 | 0.00 | 0.00 | 74 | 1020.3 |
| 20260903003213 | 14 | 273 | 0.0 | 0.0 | 0.00 | 0.00 | 0.00 | 73 | 1020.3 |
| 20260903002657 | 14 | 273 | 0.0 | 0.0 | 0.00 | 0.00 | 0.00 | 74 | 1020.3 |
| 20260903002207 | 14 | 273 | 0.0 | 0.0 | 0.00 | 0.00 | 0.00 | 74 | 1020.3 |
| 20260903001701 | 14 | 360 | 0.0 | 0.0 | 0.00 | 0.00 | 0.00 | 74 | 1020.3 |
| 20260903001156 | 14 | 272 | 0.0 | 0.0 | 0.00 | 0.00 | 0.00 | 74 | 1020.3 |
| 20260903000707 | 14 | 273 | 0.0 | 0.0 | 0.00 | 0.00 | 0.00 | 74 | 1020.3 |
| 20260903000156 | 14 | 273 | 0.0 | 0.0 | 0.00 | 0.00 | 0.00 | 74 | 1020.3 |
| 20260902235702 | 14 | 273 | 0.0 | 0.0 | 0.00 | 0.00 | 0.00 | 74 | 1020.2 |
| 20260902235206 | 14 | 360 | 0.0 | 0.0 | 0.00 | 0.00 | 0.00 | 74 | 1020.2 |
| 20260902234658 | 14 | 360 | 0.0 | 0.0 | 0.00 | 0.00 | 0.00 | 73 | 1020.2 |
| 20260902234202 | 14 | 360 | 0.0 | 0.0 | 0.00 | 0.00 | 0.00 | 73 | 1020.2 |
| 20260902233707 | 14 | 276 | 0.0 | 0.0 | 0.00 | 0.00 | 0.00 | 72 | 1020.2 |
| 20260902233212 | 15 | 272 | 0.0 | 0.0 | 0.00 | 0.00 | 0.00 | 72 | 1020.2 |
| 20260902232715 | 15 | 273 | 0.0 | 0.0 | 0.00 | 0.00 | 0.00 | 72 | 1020.4 |
| 20260902232215 | 15 | 273 | 0.0 | 0.0 | 0.00 | 0.00 | 0.00 | 72 | 1020.4 |
| 20260902231701 | 15 | 273 | 0.0 | 0.0 | 0.00 | 0.00 | 0.00 | 72 | 1020.4 |
| 20260902231204 | 15 | 273 | 0.0 | 0.0 | 0.00 | 0.00 | 0.00 | 71 | 1020.4 |
| 20260902230702 | 15 | 360 | 0.0 | 0.0 | 0.00 | 0.00 | 0.00 | 71 | 1020.4 |
| 20260902230207 | 15 | 271 | 0.0 | 0.0 | 0.00 | 0.00 | 0.00 | 71 | 1020.4 |
| 20260902225702 | 15 | 273 | 0.0 | 0.0 | 0.00 | 0.00 | 0.00 | 71 | 1020.4 |
| 20260902225157 | 15 | 360 | 0.0 | 0.0 | 0.00 | 0.00 | 0.00 | 71 | 1020.4 |
| 20260902224711 | 15 | 271 | 0.0 | 0.0 | 0.00 | 0.00 | 0.00 | 71 | 1020.4 |
| 20260902224202 | 15 | 273 | 0.0 | 0.0 | 0.00 | 0.00 | 0.00 | 70 | 1020.4 |
| 20260902223705 | 15 | 281 | 0.0 | 0.0 | 0.00 | 0.00 | 0.00 | 72 | 1020.4 |
| 20260902223207 | 15 | 281 | 0.0 | 0.0 | 0.00 | 0.00 | 0.00 | 70 | 1020.4 |
| 20260902222705 | 15 | 281 | 0.0 | 0.0 | 0.00 | 0.00 | 0.00 | 70 | 1020.4 |
| 20260902222211 | 15 | 281 | 0.0 | 0.0 | 0.00 | 0.00 | 0.00 | 70 | 1020.4 |
| 20260902221713 | 15 | 281 | 0.0 | 0.0 | 0.00 | 0.00 | 0.00 | 70 | 1020.4 |
| 20260902221216 | 15 | 281 | 0.0 | 0.0 | 0.00 | 0.00 | 0.00 | 70 | 1020.4 |
| 20260902220700 | 16 | 281 | 0.0 | 0.0 | 0.00 | 0.00 | 0.00 | 70 | 1020.4 |
| 20260902220203 | 16 | 281 | 0.0 | 0.0 | 0.00 | 0.00 | 0.00 | 69 | 1020.4 |
| 20260902215709 | 16 | 281 | 0.0 | 0.0 | 0.00 | 0.00 | 0.00 | 69 | 1020.3 |
| 20260902215159 | 16 | 281 | 0.0 | 0.0 | 0.00 | 0.00 | 0.00 | 69 | 1020.3 |
| 20260902214707 | 16 | 360 | 0.0 | 0.0 | 0.00 | 0.00 | 0.00 | 68 | 1020.3 |
| 20260902214212 | 16 | 281 | 0.0 | 0.0 | 0.00 | 0.00 | 0.00 | 68 | 1020.1 |
| 20260902213656 | 16 | 281 | 0.0 | 0.0 | 0.00 | 0.00 | 0.00 | 67 | 1020.1 |
| 20260902213205 | 16 | 281 | 0.0 | 0.0 | 0.00 | 0.00 | 0.00 | 67 | 1020.1 |
| 20260902212714 | 16 | 281 | 0.0 | 0.0 | 0.00 | 0.00 | 0.00 | 67 | 1020.0 |
| 20260902212213 | 16 | 281 | 0.0 | 0.0 | 0.00 | 0.00 | 0.00 | 66 | 1020.0 |
| 20260902211701 | 17 | 283 | 0.0 | 0.0 | 0.00 | 0.00 | 0.00 | 66 | 1020.0 |
| 20260902211201 | 17 | 281 | 0.0 | 0.0 | 0.00 | 0.00 | 0.00 | 66 | 1020.1 |
| 20260902210709 | 17 | 360 | 0.0 | 0.0 | 0.00 | 0.00 | 0.00 | 65 | 1020.1 |
| 20260902210156 | 17 | 282 | 0.0 | 0.0 | 0.00 | 0.00 | 0.00 | 65 | 1020.1 |
| 20260902205717 | 17 | 281 | 0.0 | 0.0 | 0.00 | 0.00 | 0.00 | 65 | 1019.9 |
| 20260902205202 | 17 | 281 | 0.0 | 0.0 | 0.00 | 0.00 | 0.00 | 64 | 1019.9 |
| 20260902204711 | 17 | 281 | 0.0 | 0.0 | 0.00 | 0.00 | 0.00 | 64 | 1019.9 |
| 20260902204200 | 18 | 360 | 0.0 | 0.0 | 0.00 | 0.00 | 0.00 | 64 | 1019.6 |
| 20260902203659 | 18 | 281 | 0.0 | 0.0 | 0.00 | 0.00 | 0.00 | 63 | 1019.6 |
| 20260902203205 | 18 | 283 | 0.0 | 0.0 | 0.00 | 0.00 | 0.00 | 63 | 1019.6 |
| 20260902202702 | 18 | 0.0 | 0.0 | 0.00 | 0.00 | 0.00 | 63 | 1019.4 | |
| 20260902202207 | -17 | 0.0 | 0.0 | 0.00 | 0.00 | 0.00 | 1019.4 | ||
| 20260902201707 | -17 | 0.0 | 0.0 | 0.00 | 0.00 | 0.00 | 1019.4 | ||
| 20260902201205 | -17 | 0.0 | 0.0 | 0.00 | 0.00 | 0.00 | 1019.6 | ||
| 20260902200659 | 18 | 0.0 | 0.0 | 0.00 | 0.00 | 0.00 | 60 | 1019.6 | |
| 20260902200208 | 18 | 281 | 0.0 | 0.0 | 0.00 | 0.00 | 0.00 | 60 | 1019.6 |
| 20260902195713 | 18 | 281 | 0.0 | 0.0 | 0.00 | 0.00 | 0.00 | 59 | 1019.5 |
| 20260902195204 | 19 | 360 | 0.0 | 0.0 | 0.00 | 0.00 | 0.00 | 59 | 1019.5 |
| 20260902194711 | 19 | 281 | 0.0 | 0.0 | 0.00 | 0.00 | 0.00 | 59 | 1019.5 |
| 20260902194210 | 19 | 281 | 0.0 | 0.0 | 0.00 | 0.00 | 0.00 | 59 | 1019.5 |
| 20260902193657 | 19 | 281 | 0.0 | 0.0 | 0.00 | 0.00 | 0.00 | 58 | 1019.5 |
| 20260902193158 | 19 | 281 | 0.0 | 0.0 | 0.00 | 0.00 | 0.00 | 58 | 1019.5 |
| 20260902192702 | 20 | 281 | 0.0 | 0.0 | 0.00 | 0.00 | 0.00 | 57 | 1019.4 |
| 20260902192159 | 20 | 281 | 0.0 | 0.0 | 0.00 | 0.00 | 0.00 | 57 | 1019.4 |
| 20260902191710 | 20 | 360 | 0.0 | 0.0 | 0.00 | 0.00 | 0.00 | 56 | 1019.4 |
| 20260902191201 | 20 | 281 | 0.0 | 0.0 | 0.00 | 0.00 | 0.00 | 56 | 1019.9 |
| 20260902190707 | 20 | 280 | 0.0 | 0.0 | 0.00 | 0.00 | 0.00 | 56 | 1019.9 |
| 20260902190158 | 20 | 280 | 0.0 | 0.0 | 0.00 | 0.00 | 0.00 | 55 | 1019.9 |
| 20260902185705 | 20 | 280 | 0.0 | 0.0 | 0.00 | 0.00 | 0.00 | 55 | 1019.6 |
| 20260902185209 | 20 | 280 | 0.0 | 0.0 | 0.00 | 0.00 | 0.00 | 54 | 1019.6 |
| 20260902184708 | 20 | 290 | 0.0 | 0.0 | 0.00 | 0.00 | 0.00 | 54 | 1019.6 |
| 20260902184213 | 20 | 290 | 1.6 | 0.0 | 0.00 | 0.00 | 0.00 | 54 | 1019.3 |
| 20260902183656 | 20 | 290 | 1.6 | 0.0 | 0.00 | 0.00 | 0.00 | 53 | 1019.3 |
| 20260902183204 | 21 | 322 | 0.0 | 0.0 | 0.00 | 0.00 | 0.00 | 53 | 1019.3 |
| 20260902182712 | 21 | 234 | 0.0 | 0.0 | 0.00 | 0.00 | 0.00 | 53 | 1019.2 |
| 20260902182206 | 21 | 232 | 0.0 | 0.0 | 0.00 | 0.00 | 0.00 | 52 | 1019.2 |
| 20260902181701 | 21 | 232 | 0.0 | 0.0 | 0.00 | 0.00 | 0.00 | 51 | 1019.2 |
| 20260902181214 | 21 | 232 | 0.0 | 0.0 | 0.00 | 0.00 | 0.00 | 51 | 1019.0 |
| 20260902180659 | 21 | 232 | 0.0 | 0.0 | 0.00 | 0.00 | 0.00 | 51 | 1019.0 |
| 20260902180201 | 21 | 223 | 0.0 | 0.0 | 0.00 | 0.00 | 0.00 | 51 | 1019.0 |
| 20260902175659 | 21 | 227 | 0.0 | 0.0 | 0.00 | 0.00 | 0.00 | 51 | 1018.7 |
| 20260902175208 | 21 | 224 | 0.0 | 0.0 | 0.00 | 0.00 | 0.00 | 50 | 1018.7 |
| 20260902174659 | 21 | 225 | 0.0 | 0.0 | 0.00 | 0.00 | 0.00 | 49 | 1018.7 |
| 20260902174205 | 21 | 230 | 0.0 | 0.0 | 0.00 | 0.00 | 0.00 | 49 | 1018.6 |
| 20260902173711 | 21 | 360 | 0.0 | 0.0 | 0.00 | 0.00 | 0.00 | 49 | 1018.6 |
| 20260902173156 | 21 | 360 | 0.0 | 0.0 | 0.00 | 0.00 | 0.00 | 50 | 1018.6 |
| 20260902172659 | 21 | 230 | 0.0 | 0.0 | 0.00 | 0.00 | 0.00 | 49 | 1018.5 |
| 20260902172207 | 21 | 244 | 0.0 | 0.0 | 0.00 | 0.00 | 0.00 | 49 | 1018.5 |
| 20260902171701 | 21 | 360 | 0.0 | 0.0 | 0.00 | 0.00 | 0.00 | 50 | 1018.5 |
| 20260902171155 | 21 | 226 | 0.0 | 0.0 | 0.00 | 0.00 | 0.00 | 49 | 1018.5 |
| 20260902170710 | 22 | 360 | 0.0 | 0.0 | 0.00 | 0.00 | 0.00 | 50 | 1018.5 |
| 20260902170202 | 22 | 233 | 0.0 | 0.0 | 0.00 | 0.00 | 0.00 | 49 | 1018.5 |
| 20260902165701 | 22 | 275 | 0.0 | 0.0 | 0.00 | 0.00 | 0.00 | 50 | 1018.5 |
| 20260902165206 | 22 | 275 | 0.0 | 0.0 | 0.00 | 0.00 | 0.00 | 49 | 1018.5 |
| 20260902164706 | 22 | 275 | 0.0 | 0.0 | 0.00 | 0.00 | 0.00 | 49 | 1018.5 |
| 20260902164209 | 22 | 218 | 0.0 | 0.0 | 0.00 | 0.00 | 0.00 | 48 | 1018.3 |
| 20260902163718 | 22 | 232 | 1.6 | 0.0 | 0.00 | 0.00 | 0.00 | 48 | 1018.3 |
| 20260902163206 | 22 | 218 | 3.2 | 0.0 | 0.00 | 0.00 | 0.00 | 47 | 1018.3 |
| 20260902162717 | 22 | 360 | 3.2 | 0.0 | 0.00 | 0.00 | 0.00 | 47 | 1018.1 |
| 20260902162159 | 23 | 267 | 1.6 | 0.0 | 0.00 | 0.00 | 0.00 | 47 | 1018.1 |
| 20260902161705 | 23 | 253 | 4.8 | 0.0 | 0.00 | 0.00 | 0.00 | 46 | 1018.1 |
| 20260902161212 | 23 | 288 | 3.2 | 0.0 | 0.00 | 0.00 | 0.00 | 46 | 1017.9 |
| 20260902160657 | 23 | 360 | 0.0 | 0.0 | 0.00 | 0.00 | 0.00 | 46 | 1017.9 |
| 20260902160206 | 23 | 246 | 0.0 | 0.0 | 0.00 | 0.00 | 0.00 | 46 | 1017.9 |
| 20260902155712 | 23 | 259 | 1.6 | 0.0 | 0.00 | 0.00 | 0.00 | 46 | 1017.8 |
| 20260902155205 | 23 | 203 | 3.2 | 0.0 | 0.00 | 0.00 | 0.00 | 46 | 1017.8 |
| 20260902154713 | 23 | 360 | 3.2 | 0.0 | 0.00 | 0.00 | 0.00 | 45 | 1017.8 |
| 20260902154156 | 23 | 273 | 0.0 | 0.0 | 0.00 | 0.00 | 0.00 | 44 | 1018.6 |
| 20260902153705 | 23 | 209 | 0.0 | 0.0 | 0.00 | 0.00 | 0.00 | 46 | 1018.6 |
| 20260902153206 | 24 | 168 | 1.6 | 0.0 | 0.00 | 0.00 | 0.00 | 45 | 1018.6 |
| 20260902152705 | 24 | 360 | 3.2 | 0.0 | 0.00 | 0.00 | 0.00 | 45 | 1018.0 |
| 20260902152207 | 23 | 254 | 8.0 | 0.0 | 0.00 | 0.00 | 0.00 | 46 | 1018.0 |
| 20260902151718 | 23 | 283 | 8.0 | 0.0 | 0.00 | 0.00 | 0.00 | 46 | 1018.0 |
| 20260902151200 | 23 | 360 | 8.0 | 0.0 | 0.00 | 0.00 | 0.00 | 44 | 1018.9 |
| 20260902150706 | 24 | 271 | 8.0 | 0.0 | 0.00 | 0.00 | 0.00 | 45 | 1018.9 |
| 20260902150158 | 24 | 257 | 9.7 | 0.0 | 0.00 | 0.00 | 0.00 | 43 | 1018.9 |
| 20260902145713 | 23 | 250 | 8.0 | 0.0 | 0.00 | 0.00 | 0.00 | 46 | 1018.0 |
| 20260902145203 | 23 | 360 | 4.8 | 0.0 | 0.00 | 0.00 | 0.00 | 46 | 1018.0 |
| 20260902144717 | 23 | 360 | 4.8 | 0.0 | 0.00 | 0.00 | 0.00 | 46 | 1018.0 |
| 20260902144202 | 23 | 275 | 3.2 | 0.0 | 0.00 | 0.00 | 0.00 | 48 | 1017.9 |
| 20260902143705 | 24 | 276 | 3.2 | 0.0 | 0.00 | 0.00 | 0.00 | 44 | 1017.9 |
| 20260902143213 | 23 | 288 | 4.8 | 0.0 | 0.00 | 0.00 | 0.00 | 47 | 1017.9 |
| 20260902142705 | 24 | 360 | 3.2 | 0.0 | 0.00 | 0.00 | 0.00 | 47 | 1018.8 |
| 20260902142211 | 24 | 271 | 6.4 | 0.0 | 0.00 | 0.00 | 0.00 | 47 | 1018.8 |
| 20260902141712 | 25 | 288 | 6.4 | 0.0 | 0.00 | 0.00 | 0.00 | 44 | 1018.8 |
| 20260902141156 | 25 | 236 | 6.4 | 0.0 | 0.00 | 0.00 | 0.00 | 45 | 1018.8 |
| 20260902140700 | 25 | 283 | 6.4 | 0.0 | 0.00 | 0.00 | 0.00 | 45 | 1018.8 |
| 20260902140159 | 25 | 360 | 1.6 | 0.0 | 0.00 | 0.00 | 0.00 | 45 | 1018.8 |
| 20260902135701 | 24 | 186 | 3.2 | 0.0 | 0.00 | 0.00 | 0.00 | 46 | 1018.9 |
| 20260902135210 | 24 | 232 | 8.0 | 0.0 | 0.00 | 0.00 | 0.00 | 47 | 1018.9 |
| 20260902134716 | 24 | 360 | 4.8 | 0.0 | 0.00 | 0.00 | 0.00 | 44 | 1018.9 |
| 20260902134159 | 24 | 304 | 3.2 | 0.0 | 0.00 | 0.00 | 0.00 | 48 | 1018.9 |
| 20260902133704 | 23 | 190 | 4.8 | 0.0 | 0.00 | 0.00 | 0.00 | 46 | 1018.9 |
| 20260902133211 | 25 | 278 | 4.8 | 0.0 | 0.00 | 0.00 | 0.00 | 44 | 1018.9 |
| 20260902132711 | 25 | 176 | 3.2 | 0.0 | 0.00 | 0.00 | 0.00 | 43 | 1018.9 |
| 20260902132205 | 24 | 292 | 3.2 | 0.0 | 0.00 | 0.00 | 0.00 | 46 | 1018.9 |
| 20260902131717 | 24 | 360 | 1.6 | 0.0 | 0.00 | 0.00 | 0.00 | 46 | 1018.9 |
| 20260902131203 | 24 | 0.0 | 0.0 | 0.00 | 0.00 | 0.00 | 45 | 1018.1 | |
| 20260902130711 | 24 | 198 | 6.4 | 0.0 | 0.00 | 0.00 | 0.00 | 47 | 1018.1 |
| 20260902130201 | 23 | 271 | 8.0 | 0.0 | 0.00 | 0.00 | 0.00 | 48 | 1018.1 |
| 20260902125719 | 23 | 360 | 4.8 | 0.0 | 0.00 | 0.00 | 0.00 | 48 | 1018.9 |
| 20260902125205 | 25 | 288 | 1.6 | 0.0 | 0.00 | 0.00 | 0.00 | 48 | 1018.9 |
| 20260902124710 | 24 | 193 | 1.6 | 0.0 | 0.00 | 0.00 | 0.00 | 47 | 1018.9 |
| 20260902124216 | 24 | 360 | 1.6 | 0.0 | 0.00 | 0.00 | 0.00 | 46 | 1019.3 |
| 20260902123715 | 25 | 153 | 1.6 | 0.0 | 0.00 | 0.00 | 0.00 | 47 | 1019.3 |
| 20260902123201 | 24 | 188 | 4.8 | 0.0 | 0.00 | 0.00 | 0.00 | 48 | 1019.3 |
| 20260902122709 | 23 | 360 | 6.4 | 0.0 | 0.00 | 0.00 | 0.00 | 48 | 1019.5 |
| 20260902122209 | 23 | 311 | 3.2 | 0.0 | 0.00 | 0.00 | 0.00 | 48 | 1019.5 |
| 20260902121717 | 24 | 240 | 1.6 | 0.0 | 0.00 | 0.00 | 0.00 | 46 | 1019.5 |
| 20260902121209 | 24 | 150 | 3.2 | 0.0 | 0.00 | 0.00 | 0.00 | 49 | 1019.0 |
| 20260902120714 | 23 | 360 | 3.2 | 0.0 | 0.00 | 0.00 | 0.00 | 49 | 1019.0 |
| 20260902120218 | 23 | 186 | 3.2 | 0.0 | 0.00 | 0.00 | 0.00 | 51 | 1019.0 |
| 20260902115705 | 23 | 288 | 6.4 | 0.0 | 0.00 | 0.00 | 0.00 | 50 | 1018.7 |
| 20260902115204 | 23 | 274 | 11.3 | 0.0 | 0.00 | 0.00 | 0.00 | 51 | 1018.7 |
| 20260902114711 | 23 | 288 | 11.3 | 0.0 | 0.00 | 0.00 | 0.00 | 51 | 1018.7 |
| 20260902114214 | 23 | 360 | 4.8 | 0.0 | 0.00 | 0.00 | 0.00 | 52 | 1018.9 |
| 20260902113704 | 23 | 301 | 1.6 | 0.0 | 0.00 | 0.00 | 0.00 | 50 | 1018.9 |
| 20260902113213 | 23 | 360 | 1.6 | 0.0 | 0.00 | 0.00 | 0.00 | 53 | 1018.9 |
| 20260902112706 | 23 | 276 | 1.6 | 0.0 | 0.00 | 0.00 | 0.00 | 51 | 1019.1 |
| 20260902112159 | 23 | 292 | 1.6 | 0.0 | 0.00 | 0.00 | 0.00 | 51 | 1019.1 |
| 20260902111714 | 23 | 302 | 1.6 | 0.0 | 0.00 | 0.00 | 0.00 | 52 | 1019.1 |
| 20260902111208 | 22 | 360 | 1.6 | 0.0 | 0.00 | 0.00 | 0.00 | 57 | 1019.4 |
| 20260902110703 | 22 | 306 | 0.0 | 0.0 | 0.00 | 0.00 | 0.00 | 56 | 1019.4 |